Location: Pasadena-CA
(34.1440°N, 118.1100°W)
Time: 20:49:37
(UTC-07:00)

FALCONSAT 3 - Pass Details

Date: 06 July 2022
Orbit: 392 x 398 km, 35.4° (Epoch: 17 August)

Event Time Altitude Azimuth Distance (km) Brightness Sun altitude
Rises 21:25:43 0° 279° (W) 2,337 ? -14.2°
Reaches altitude 10° 21:27:51 10° 281° (W) 1,472 ? -14.5°
Maximum altitude 21:31:12 80° 8° (N) 417 ? -15.1°
Enters shadow 21:32:46 29° 93° (E) 779 ? -15.3°
